{"data":{"norad_id":66735,"intl_designator":"2025-276BX","name":"FLOCK 4H-32","alt_names":[],"object_type":"PAYLOAD","status":"ACTIVE","operator":null,"country":"US","launch_date":"2025-11-28","launch_site_code":"AFWTR","launch_vehicle":null,"mission":null,"orbit_class":"UNKNOWN","rcs_meters":null,"size_class":null,"mass_kg":null,"dimensions":null,"purposes":["earth_obs"],"wikipedia_slug":null,"has_3d_model":false,"image_url":null,"decayed_at":null,"tle_current":{"epoch":"2026-05-25T04:18:15.669792Z","epoch_age_seconds":66324,"freshness":"FRESH","line1":"1 66735U 25276BX  26145.17934803  .00005591  00000+0  26685-3 0  9991","line2":"2 66735  97.4229 219.1129 0006357  91.3179 268.8784 15.19442204 26922","mean_motion":15.19442204,"eccentricity":0.0006357,"inclination_deg":97.4229,"raan_deg":219.1129,"arg_perigee_deg":91.3179,"mean_anomaly_deg":268.8784,"bstar":0.00026685,"rev_number":2692,"period_min":94.771620546615,"perigee_km":503.14806043638,"apogee_km":511.90249145402,"semimajor_km":6885.6622759452,"source":"CELESTRAK","updated_at":"2026-05-25T13:38:13.373647Z"}}}